Portada
METAR-TAF:

METAR-TAF

Aeroports :

Terol, Espanya

latitud: 40-24-43N, longitud: 01-13-03W, altitud: 1030 m

Observació

L'informe es va fer fa 39 minuts, a les 11:30 UTC
Vent 8 kt del Sud-Est
Temperatura 7°C
Humitat 87%
Pressió 1019 hPa
Visibilitat 10 km o més
Cel cobert a una alçada de 1400 ft

METAR: LETL 251130Z AUTO 14008KT 9999 OVC014 07/05 Q1019

Hora: 13:09 (12:09 UTC)


TAF: manca

Observacions i pronòstics meteorològics de més de 4000 aeroports (METAR i TAF).

Les estacions disponibles són els punts grocs i vermells al mapa.

Posi el ratolí al punt desitjat per veure el nom de l'estació.

Feu clic per veure les observacions i els pronòstics meteorològics.

Per canviar el mapa: feu clic els botons verds amb una creu de color negre per apropar; al botó verd amb un guió per allunyar la imatge; o en les fletxes verdes per a mapes adjacents.


METAR-TAF: